CAPE
1015 1277 921 1117 1543 1392 1155 952 931 860 896 895 786 480 416 561 661 344 216 354 427 321 281 299 191 182 150 109 50 42 24 22 19 24 24 32 31 39 40 20 16 22 10
1182 1323 986 1093 1605 1813 1494 1183 968 1112 1077 1003 767 649 715 733 664 630 560 437 325 271 364 166 130 97 56 20 0 0 0 0 0 3 18 34 41 42 23 9 12 14 12
1218 1410 1183 1084 1480 1606 1553 1339 1221 1227 1200 992 783 750 807 845 826 734 491 279 186 234 255 70 38 23 6 0 0 0 0 0 0 19 23 31 31 18 8 2 2 4 7
1363 1294 1281 899 957 1600 1659 1530 1457 1434 1291 1009 882 961 941 877 728 574 341 181 124 170 97 21 12 12 4 0 0 0 0 0 0 0 13 23 13 5 3 3 4 2 3
1503 1206 1069 690 481 618 1366 1673 1660 1494 1280 1099 1037 1063 915 751 548 294 137 79 82 101 18 7 10 14 0 0 0 0 0 0 0 2 3 6 4 6 3 0 0 3 4
1343 1302 918 393 222 307 528 1451 1641 1439 1297 1136 1072 971 863 668 429 140 46 5 9 0 10 14 20 9 0 0 0 0 0 0 0 2 0 1 0 10 1 0 4 4 3
1088 1036 125 689 413 458 444 1185 1484 1360 1208 1085 963 874 763 577 333 136 53 25 36 3 11 13 18 1 0 0 0 0 0 0 0 0 0 0 3 7 5 2 3 3 3
1018 1013 1221 712 602 768 565 1405 1243 1185 1076 985 851 797 705 453 208 115 103 115 59 0 7 3 1 0 0 0 0 0 0 0 0 0 0 0 4 7 5 4 4 3 3
523 708 1087 733 681 614 729 511 482 995 908 774 719 489 483 285 219 193 180 138 129 0 0 0 0 0 0 0 0 0 0 0 0 0 0 0 7 9 6 7 3 3 4
478 613 621 743 595 454 552 311 385 471 593 587 525 354 222 224 128 76 112 155 166 0 0 0 0 0 0 0 0 0 0 0 0 0 0 1 8 9 9 6 3 3 3
304 609 464 596 672 726 422 231 83 127 223 144 173 166 147 172 112 69 53 183 94 0 0 0 0 0 0 0 0 0 0 0 0 0 0 5 10 9 6 5 4 4 4
364 458 562 634 621 257 295 140 66 105 170 35 34 54 109 172 115 0 118 171 73 0 0 0 0 0 0 0 0 0 0 0 0 0 0 6 9 9 6 4 4 4 4
400 392 320 110 82 58 81 36 49 9 0 26 60 37 123 151 25 29 172 158 16 0 0 0 0 0 0 0 0 0 0 0 0 0 1 3 5 5 5 3 3 3 1
171 198 160 115 41 47 2 3 0 0 4 1 7 48 162 75 16 58 114 70 0 0 0 0 0 0 0 0 0 0 0 0 0 0 1 3 4 5 5 5 5 2 2
158 169 117 86 42 0 19 16 1 2 0 11 48 65 128 33 8 9 91 117 38 71 15 0 0 0 0 0 0 0 0 0 0 0 0 1 3 8 5 5 4 4 2
40 19 19 3 19 1 10 11 8 4 2 10 55 85 123 44 5 0 23 51 89 131 45 0 0 0 0 0 0 0 0 0 0 0 0 0 0 1 9 9 6 5 3
1 4 4 2 1 0 1 1 1 15 34 19 39 59 74 50 11 18 12 11 1 9 0 0 0 0 0 0 0 0 0 0 0 0 1 1 0 0 0 10 9 7 3
2 2 5 3 2 3 2 2 4 9 17 25 35 39 19 22 22 3 4 0 0 3 0 0 0 0 0 0 0 0 0 0 0 0 0 0 4 2 1 0 0 0 0
7 18 3 4 2 3 3 2 4 1 15 58 37 14 6 15 7 5 12 1 3 0 0 0 0 0 0 0 0 0 0 0 0 0 0 0 0 0 6 0 0 0 0
7 8 2 3 4 3 3 4 5 13 18 42 41 13 2 25 16 7 0 19 21 3 1 0 0 0 0 0 0 0 0 0 0 0 0 0 0 0 0 2 1 2 0
2 6 4 1 0 3 3 2 2 2 13 20 24 43 39 40 18 0 0 26 62 38 48 50 32 12 1 0 0 0 0 0 0 0 0 0 0 0 0 0 0 9 1
1 6 7 1 1 2 2 3 3 4 19 18 16 6 12 39 10 25 4 32 68 102 136 112 77 51 95 10 44 101 70 17 0 0 0 0 0 0 0 0 0 0 0
0 4 6 3 3 3 11 14 5 0 1 1 2 4 4 16 31 15 0 0 4 78 98 112 89 128 169 54 61 120 164 104 118 2 0 0 0 0 0 0 0 0 0
0 1 3 0 5 3 2 1 3 4 1 3 1 1 8 7 28 27 0 0 1 36 85 135 130 177 188 114 69 78 123 124 80 45 0 0 0 0 0 0 0 0 0
0 0 2 2 9 3 3 2 0 5 0 0 0 0 0 8 29 23 3 1 0 14 34 70 89 153 209 97 150 113 51 27 3 16 19 21 0 0 0 0 0 0 0
0 0 1 1 2 5 5 4 2 1 1 2 1 2 2 1 7 12 17 9 8 30 70 47 76 122 121 103 56 138 155 118 76 27 22 36 42 0 0 0 0 0 0
CIN
-64 -18 -91 -58 -38 -100 -163 -214 -114 -89 -52 -34 -17 -77 -124 -71 -24 -37 -44 -2 0 0 -1 0 0 -20 -27 -42 -85 -84 -130 -37 -118 -92 -22 0 0 0 0 -2 -1 -1 0
-37 -13 -91 -56 -15 -1 -29 -103 -211 -64 -29 -18 -23 -25 -17 -24 -32 0 -2 -1 -1 -1 0 -8 -20 -17 -66 -46 0 0 0 0 0 -1 -1 0 0 0 0 -2 -1 0 0
-35 -8 -12 -18 -1 0 0 -25 -97 -72 -20 -40 -33 -23 -13 -5 -4 0 -18 -4 -9 0 -2 -32 -65 -121 -85 0 0 0 0 0 0 -4 -3 0 0 0 0 -3 -1 -1 0
-17 -1 0 -24 -7 -1 0 -19 -28 -19 -43 -21 -25 -17 -3 -2 -1 -2 -7 -7 -10 -8 -21 -77 -146 0 0 0 0 0 0 0 0 -1 -2 0 -1 0 0 0 0 0 0
-2 -1 -1 -18 -13 -16 -2 -1 -1 -19 -31 -10 -20 -3 -3 0 0 -22 -12 -37 -29 -16 -14 0 0 0 0 0 0 0 0 0 0 -2 -1 -1 -1 -1 0 0 0 0 -1
-10 0 -15 -40 -106 -55 -5 -1 -7 -20 -9 -10 -4 -13 0 -1 -1 -62 -41 -77 -97 0 0 -1 0 0 0 0 0 0 0 0 0 -2 0 -1 0 -1 -1 0 0 0 0
-46 -36 -283 -95 -70 -45 -22 -3 -1 0 -11 -12 -2 -4 -6 -4 -2 -32 -21 -40 -60 -1 -1 0 0 0 0 0 0 0 0 0 0 0 0 0 -1 0 0 0 -1 0 0
-30 -11 -9 -25 -38 -4 -8 -1 -23 -6 -14 -7 -2 -7 -4 -16 -38 -8 -8 -14 -7 0 -1 0 0 0 0 0 0 0 0 0 0 0 0 0 -1 -1 0 -1 0 0 0
-97 -48 0 -1 -1 -41 -17 -10 -17 -4 -13 -4 -1 -7 -3 -56 -37 -12 -4 -4 0 0 0 0 0 0 0 0 0 0 0 0 0 0 0 0 0 0 -1 -1 0 0 0
-62 -43 -20 0 -1 -9 -16 -22 -15 -11 -9 -1 -2 -2 -22 -18 -54 -46 -19 -12 -6 0 0 0 0 0 0 0 0 0 0 0 0 0 0 -1 0 0 0 -1 0 0 0
-39 -7 -30 0 0 -3 -2 -6 -13 -11 -6 -5 -3 -6 -33 -13 -6 -33 -22 -8 -15 0 0 0 0 0 0 0 0 0 0 0 0 0 0 -2 0 0 -1 0 0 0 0
-16 -4 0 -1 -3 -46 -40 -2 -13 -10 -2 -2 -6 -6 -6 -1 -9 0 -18 -9 -23 0 0 0 0 0 0 0 0 0 0 0 0 0 0 -2 0 0 -1 0 0 0 0
-10 -21 -13 -89 -88 -112 -12 -7 -34 -47 0 -4 -3 -2 -1 -2 -61 -39 0 -4 -6 0 0 0 0 0 0 0 0 0 0 0 0 0 -1 -2 0 0 -1 -1 -1 -1 0
-62 -29 -42 -36 -106 -52 -44 0 0 0 -10 -1 -6 -6 -8 -3 -50 -7 -1 -3 0 0 0 0 0 0 0 0 0 0 0 0 0 0 -1 -2 -1 0 0 0 0 0 0
-64 -50 -52 -14 -32 0 -36 -27 0 0 0 0 0 -2 -1 -38 -125 -70 -6 -1 -10 -2 -22 0 0 0 0 0 0 0 0 0 0 0 0 -1 -1 -1 0 0 0 0 -1
-169 -59 -94 -8 -19 -4 -6 -3 -12 0 0 -5 -1 -8 -33 -69 -147 0 -146 -39 -6 -1 -11 0 0 0 0 0 0 0 0 0 0 0 0 0 0 -1 0 0 0 0 0
0 0 -8 -14 0 0 0 0 0 0 0 -3 -3 -16 -55 -79 -151 -180 -153 -163 -33 -71 0 0 0 0 0 0 0 0 0 0 0 0 -1 -2 0 0 0 0 -1 0 -1
0 0 -1 0 0 0 0 -14 0 0 0 -2 -2 -25 -78 -88 -124 -169 -163 0 0 -132 0 0 0 0 0 0 0 0 0 0 0 0 0 0 -1 -1 -1 0 0 0 0
-1 0 0 0 -1 0 0 0 0 -5 -1 0 -9 -88 -91 -83 -113 -106 -138 -101 -165 0 0 0 0 0 0 0 0 0 0 0 0 0 0 0 0 0 -1 0 0 0 0
0 -1 0 0 -31 0 0 0 0 0 -1 0 -16 -71 -91 -100 -109 -104 -11 -121 -115 -96 -91 0 0 0 0 0 0 0 0 0 0 0 0 0 0 0 0 -1 -1 -1 0
0 -1 0 0 0 0 0 0 0 0 0 -4 -18 -38 -78 -73 -47 0 0 -100 -83 -69 -48 -74 -71 -88 -70 0 0 0 0 0 0 0 0 0 0 0 0 0 0 -2 -2
-1 0 0 0 0 0 0 0 0 0 0 -2 -12 -29 -76 -50 -63 -81 -116 -102 -70 -40 -21 -63 -53 -86 -63 -151 -58 -15 -9 -93 0 0 0 0 0 0 0 0 0 0 0
0 0 -1 0 0 0 -2 -1 0 0 0 0 0 -7 -62 -54 -34 -102 0 0 -85 -62 -54 -59 -57 -47 -50 -101 -79 -10 -1 -2 -3 -16 0 0 0 0 0 0 0 0 0
0 0 0 0 0 0 0 0 0 -1 0 0 0 -1 -19 -55 -57 -103 -55 0 -64 -61 -40 -48 -68 -40 -31 -15 -62 -74 -29 -13 -1 -2 0 0 0 0 0 0 0 0 0
0 0 -1 -1 -1 0 0 0 0 -1 0 0 0 0 0 -45 -31 -55 -42 -52 -30 -46 -45 -19 -26 -41 -30 -17 -10 -11 -48 -55 -74 -9 -5 -3 0 0 0 0 0 0 0
0 0 -1 -1 -1 -1 0 0 0 0 0 -1 0 0 0 -16 -32 -54 -18 -24 -20 -28 -20 -8 -25 -34 -30 -15 -8 -3 -1 -1 -3 -8 -2 -2 -2 0 0 0 0 0 0
Wind_Speed
7 2 3 7 8 11 10 8 7 7 7 7 6 6 11 9 9 8 12 12 12 13 15 17 18 18 19 20 20 20 20 20 21 22 22 23 24 24 25 24 24 24 22
6 6 5 5 9 10 7 7 10 9 9 8 6 6 10 8 8 8 8 11 11 12 15 17 17 17 18 18 19 18 17 19 20 21 23 23 24 23 23 23 22 22 21
4 6 7 4 8 9 8 9 9 12 11 8 8 8 7 7 6 7 9 9 10 11 13 14 15 15 16 17 16 17 17 18 19 22 22 22 22 22 21 21 21 21 20
2 2 7 6 7 8 8 10 11 15 13 12 9 8 7 9 6 6 7 8 9 10 10 12 13 15 15 15 14 15 15 17 20 22 21 20 19 19 20 20 20 19 19
5 4 5 8 11 16 11 12 12 14 14 12 12 8 10 8 6 6 7 8 7 8 11 12 14 14 14 13 14 14 16 18 18 17 18 17 17 18 20 19 18 18 18
8 8 14 6 20 4 14 14 11 13 14 13 11 10 12 9 7 7 7 7 8 8 9 12 12 13 13 13 13 15 16 16 16 16 17 17 17 18 18 18 18 18 18
6 8 1 5 14 13 18 25 14 12 12 13 13 12 11 9 8 8 8 8 8 10 9 11 13 12 12 13 14 14 14 14 15 16 16 17 18 19 18 18 17 18 18
5 4 4 3 4 12 13 18 13 13 12 13 12 11 10 11 10 10 9 9 9 10 9 11 12 12 11 12 15 14 13 13 13 15 15 16 17 17 17 16 17 18 18
8 6 5 7 7 8 7 9 10 10 12 13 12 13 10 12 12 12 10 9 9 10 10 11 10 12 12 13 14 13 12 10 12 13 14 14 15 15 15 15 16 18 18
6 4 12 7 9 10 14 16 15 11 12 13 14 15 11 15 13 12 11 8 9 11 10 11 12 12 13 13 13 11 10 10 11 12 11 12 14 13 13 15 16 17 18
8 2 5 7 14 16 26 23 18 14 13 13 14 13 14 12 14 13 11 10 10 10 10 10 11 10 12 11 10 12 11 9 9 10 11 12 11 12 13 14 15 16 16
7 6 3 8 5 9 21 30 23 16 13 14 11 14 14 14 13 13 12 11 10 9 10 10 10 11 11 11 11 10 8 9 8 9 9 9 10 11 12 12 14 14 15
7 6 5 3 8 12 18 18 22 23 17 13 14 16 13 14 13 15 13 12 10 10 9 9 10 6 5 8 11 8 8 8 10 7 7 8 9 10 11 12 13 13 14
8 7 6 5 6 9 9 6 12 16 19 15 17 14 13 16 14 14 14 13 10 8 7 6 3 1 4 6 6 8 7 7 5 5 6 6 7 9 10 11 12 12 12
9 9 6 4 5 13 18 8 7 7 13 16 17 18 14 14 15 12 16 13 11 8 7 5 2 1 5 6 6 7 6 5 5 5 4 4 5 7 8 10 11 11 11
10 9 7 6 9 11 14 11 4 7 13 15 18 14 14 14 15 13 18 13 10 9 7 4 3 3 5 4 4 5 5 4 5 5 4 3 3 4 6 7 9 9 9
11 11 10 10 5 12 11 9 9 5 8 14 16 13 13 14 15 16 16 13 10 9 7 4 4 1 2 3 3 3 4 5 7 7 6 5 4 4 5 5 6 7 7
11 10 11 11 7 6 4 5 5 6 7 10 16 15 13 15 15 17 17 15 12 8 6 5 3 4 2 2 3 5 6 7 10 10 11 10 7 5 4 3 4 4 5
10 10 10 10 10 6 6 3 6 7 9 10 10 13 18 14 17 14 16 14 10 8 7 5 5 6 4 4 4 6 7 10 13 13 13 12 11 10 6 1 1 4 5
9 11 10 10 10 12 7 5 11 8 12 12 11 12 16 20 17 13 12 11 10 8 6 5 6 7 6 5 5 6 7 12 15 17 16 15 14 11 12 10 4 5 4
9 9 10 10 12 12 7 9 8 14 12 12 16 12 13 12 15 13 13 12 10 9 8 5 4 4 6 6 7 9 10 12 16 18 20 16 17 14 12 11 10 9 5
9 10 11 13 15 18 5 7 7 10 8 13 15 16 14 13 16 13 14 13 11 9 7 6 6 8 9 8 10 10 12 15 19 20 21 19 19 14 13 12 11 9 9
8 10 11 13 16 19 19 8 7 10 10 12 16 19 18 15 15 14 16 14 14 12 11 10 9 9 10 10 10 13 14 19 16 15 18 23 19 17 15 13 11 11 12
8 9 11 13 15 15 16 17 16 11 11 15 17 17 20 16 18 16 19 17 15 13 12 13 13 11 12 9 12 17 23 23 23 24 18 16 16 17 17 17 15 14 14
9 11 13 13 14 14 13 14 16 18 21 10 17 20 24 22 19 17 19 19 16 15 16 15 14 16 15 22 12 18 20 28 27 30 32 21 21 22 21 16 16 17 15
12 12 14 15 15 14 16 16 16 15 17 17 17 15 21 24 24 21 19 19 20 18 18 15 15 12 18 30 25 27 23 23 23 23 27 30 31 25 22 22 21 20 19
Wind_Direction
1 68 225 239 222 180 170 161 184 186 170 173 156 135 117 115 105 100 96 95 91 88 85 82 82 79 78 76 73 73 71 70 68 67 65 64 64 63 62 60 59 56 50
56 113 162 232 239 226 207 177 148 179 164 161 180 152 122 124 112 108 104 98 96 89 86 87 82 78 76 74 75 71 68 69 69 68 69 64 64 61 57 54 54 51 49
52 127 151 195 226 219 214 194 171 152 153 163 162 146 144 129 132 114 106 109 100 91 87 85 83 81 78 78 75 72 68 66 68 74 67 63 62 60 55 53 53 50 47
34 142 160 182 205 219 219 193 174 145 139 139 153 150 158 127 140 125 118 114 103 95 92 87 87 86 83 78 72 70 68 69 77 79 70 63 58 55 54 53 51 47 46
339 302 230 244 256 265 236 199 172 144 141 143 137 150 142 148 164 139 131 120 109 100 97 94 94 89 83 78 74 71 75 79 78 65 63 59 56 54 58 53 51 47 44
327 306 296 248 265 247 246 199 182 154 148 143 140 138 142 147 174 149 151 134 117 112 104 97 93 88 83 78 77 79 81 77 72 61 57 55 53 59 56 54 54 51 49
331 307 266 182 172 168 153 157 162 158 155 147 146 141 146 169 178 166 157 134 129 115 109 100 95 91 84 83 82 82 76 68 64 64 60 59 64 65 63 59 55 52 51
347 299 278 260 217 162 163 154 162 165 159 155 157 150 156 186 174 184 173 144 131 119 112 101 97 93 87 84 85 84 70 65 60 60 60 61 67 65 64 57 56 55 54
339 304 290 277 268 266 189 214 182 183 172 166 160 148 169 194 186 187 167 163 135 121 112 103 98 94 90 87 86 82 71 42 56 57 59 63 69 65 59 58 56 58 56
355 301 279 267 269 268 260 253 240 200 180 172 155 146 144 191 189 183 182 154 148 125 115 109 100 94 91 88 84 74 63 52 53 57 51 62 68 61 58 59 58 58 58
1 89 176 229 272 273 265 256 236 216 197 190 167 152 155 181 190 187 185 174 155 137 122 112 101 93 88 81 78 84 71 44 42 42 55 74 69 65 61 59 58 56 54
43 59 93 167 182 300 281 251 239 232 204 200 186 175 173 174 192 196 183 170 161 142 125 113 103 97 90 82 84 68 37 48 34 39 58 70 69 65 62 57 58 56 54
62 63 76 61 320 326 301 227 237 233 225 210 199 171 184 197 188 200 183 177 168 145 126 113 109 91 72 75 87 38 54 44 49 39 67 70 70 66 60 58 56 56 56
55 86 91 79 64 81 44 233 226 230 222 210 203 196 188 203 190 192 190 185 177 169 147 133 123 41 67 66 56 63 42 35 15 36 66 67 64 65 62 61 58 55 56
46 56 99 79 110 121 116 96 210 171 196 209 202 204 191 186 178 177 201 197 186 184 172 160 237 103 75 67 57 59 43 17 8 22 42 46 53 61 61 59 58 51 48
33 34 79 63 127 131 131 122 160 145 212 212 211 195 174 178 189 184 207 201 198 204 197 208 202 119 87 50 44 39 24 5 341 329 3 23 17 3 48 52 51 48 41
34 45 101 97 132 133 130 136 125 133 145 152 202 194 184 189 188 198 209 207 207 203 199 210 222 204 57 22 18 0 357 348 306 299 306 322 327 348 19 32 31 49 40
47 55 85 105 121 150 142 213 166 172 172 159 209 208 178 164 188 204 212 216 216 212 205 210 211 255 301 352 343 314 314 303 285 286 289 297 312 336 346 28 41 30 32
65 77 73 85 130 146 184 199 194 195 172 205 193 205 210 191 201 200 218 218 205 207 209 217 241 259 282 312 323 315 307 292 281 280 285 292 299 310 335 347 350 347 341
60 87 91 70 101 147 172 226 229 220 159 224 201 167 213 218 209 192 198 197 187 199 205 195 244 273 284 304 317 315 311 293 283 277 281 286 294 305 309 322 322 310 299
75 67 76 76 108 130 170 214 198 158 176 184 178 208 181 212 195 184 175 171 181 189 178 196 235 265 290 295 310 308 307 296 287 281 276 289 289 299 306 311 317 319 299
91 97 86 104 120 129 160 223 234 202 213 196 204 207 210 211 179 202 208 189 188 211 210 231 241 270 287 284 294 305 309 291 284 282 280 287 290 301 304 305 309 310 313
104 108 107 111 131 141 141 136 263 243 244 240 218 210 218 222 205 204 221 219 223 237 242 246 247 262 281 281 282 301 302 289 297 297 290 284 291 297 301 303 300 299 300
119 113 112 118 128 134 141 146 148 164 229 240 228 228 220 221 227 216 230 233 223 234 243 254 258 264 277 277 287 284 284 283 286 291 299 301 299 296 300 302 304 301 299
131 129 129 124 130 128 134 140 156 160 168 236 241 233 238 235 230 220 230 232 227 235 245 258 254 267 270 274 286 294 289 278 283 284 288 301 302 300 301 303 298 303 301
143 138 139 137 138 136 141 147 148 150 154 160 171 192 237 235 226 230 231 231 241 245 251 255 258 243 265 269 279 279 286 289 293 294 294 295 296 301 302 302 296 299 303